"Pseudo-MPEC" for P21CmAR

Created 2022 Dec 20 6:22:16 UT using Find_Orb

Click here for an explanation of pseudo-MPECs

 
 Astrometry: 
     P21CmAR* C2022 12 01:*4U,AstrometryfE61VqlwYfxsT'LK/o`Z*gNh!^ug]1RAIF_GYF52
     P21CmAR  C2022 12 01y`yU:\?5QYI6FR$G6yiMdAM+kskl-qEmJ!aP]'?h`h$-t).d\Q8GF52
     P21CmAR  C2022 12 01M?RrmwdHcmrd.H!5gjP0n7^Qy#4redacted;Q;5$4Av'?:'g#N:hF52
     P21CmAR  C2022 12 017bCclick*3Vn\GRgGUhereUxJjforV_2R@+FrI*fexplanationkF52

Station data:
(F52) Pan-STARRS 2, Haleakala  (N20.707382 W156.255910)  US/Hawaii.
   Observers J. Bulger, T. Dukes, T. Lowe, A. Schultz, M. Willman. Measurers
   K. Chambers, S. Chastel, T. de Boer, L. Denneau, J. Fairlamb, H.
   Flewelling, M. Huber, C.-C. Lin, E. Magnier, Y. Ramanjooloo, R. Wainscoat,
   R. Weryk. 1.8-m Ritchey-Chrétien + CCD.

Orbital elements:  P21CmAR
   Perihelion 2022 Aug 25.26186 +/- 110 TT =  6:17:04 (JD 2459816.76186)
Epoch 2022 Dec  2.0 TT = JDT 2459915.5   Earth MOID: 0.0914      AutoNEOCP
M  91.46256963 +/- 90               (J2000 ecliptic)
n   0.92631446 +/- 0.538            Peri.  354.89746 +/- 60
a   1.04223043 +/- 0.404            Node   329.92481 +/- 34
e   0.1545823 +/- 0.216             Incl.    5.63084 +/- 32
P   1.06/388.63d           H 23.36  G  0.15   U 12.3  SR
q 0.88112004 +/- 0.477    Q 1.20334082 +/- 20.8
From 4 observations 2022 Dec. 1 (55.2 min); mean residual 0".10
Residuals in arcseconds: 
221201 F52  .02+  .13+    221201 F52  .01-  .14-    
221201 F52  .02-  .13-    221201 F52  .01+  .14+    

Ephemerides (geocentric):
Date (UTC) HH   RA             Dec           delta  r     elong  mag " sig PA
---- --------  ------------   ------------  ------ ------ -----  --- --------
2022 12 20 06  06 41 22.731   +60 14 50.71  .15887 1.1136 142.1 21.0  47d 117
2022 12 20 07  06 41 06.069   +60 13 40.47  .15891 1.1137 142.2 21.0  47d 117
2022 12 20 08  06 40 49.429   +60 12 30.02  .15896 1.1138 142.2 21.0  47d 117
2022 12 20 09  06 40 32.813   +60 11 19.36  .15900 1.1139 142.3 21.0  47d 117
2022 12 20 10  06 40 16.220   +60 10 08.47  .15905 1.1140 142.3 21.0  47d 117
2022 12 20 11  06 39 59.651   +60 08 57.37  .15909 1.1141 142.3 21.0  47d 117
2022 12 20 12  06 39 43.105   +60 07 46.06  .15914 1.1142 142.4 21.0  47d 118
2022 12 20 13  06 39 26.582   +60 06 34.54  .15918 1.1143 142.4 21.0  47d 118
2022 12 20 14  06 39 10.084   +60 05 22.80  .15923 1.1144 142.4 21.0  47d 118
2022 12 20 15  06 38 53.608   +60 04 10.84  .15927 1.1144 142.5 21.0  47d 118
2022 12 20 16  06 38 37.157   +60 02 58.68  .15932 1.1145 142.5 21.0  47d 118
2022 12 20 17  06 38 20.730   +60 01 46.30  .15937 1.1146 142.6 21.0  47d 118
2022 12 20 18  06 38 04.326   +60 00 33.72  .15941 1.1147 142.6 21.0  47d 118
2022 12 20 19  06 37 47.947   +59 59 20.92  .15946 1.1148 142.6 21.0  47d 118
2022 12 20 20  06 37 31.591   +59 58 07.91  .15950 1.1149 142.7 21.0  47d 118
2022 12 20 21  06 37 15.260   +59 56 54.69  .15955 1.1150 142.7 21.0  47d 118
2022 12 20 22  06 36 58.953   +59 55 41.26  .15960 1.1151 142.7 21.0  47d 118
2022 12 20 23  06 36 42.671   +59 54 27.62  .15964 1.1152 142.8 21.0  47d 118
2022 12 21 00  06 36 26.413   +59 53 13.78  .15969 1.1153 142.8 21.0  48d 118
2022 12 21 01  06 36 10.180   +59 51 59.73  .15974 1.1153 142.8 21.0  48d 118
2022 12 21 02  06 35 53.971   +59 50 45.47  .15979 1.1154 142.9 21.0  48d 118
2022 12 21 03  06 35 37.787   +59 49 31.00  .15983 1.1155 142.9 21.0  48d 118
2022 12 21 04  06 35 21.627   +59 48 16.33  .15988 1.1156 143.0 21.0  48d 118
2022 12 21 05  06 35 05.493   +59 47 01.45  .15993 1.1157 143.0 21.0  48d 118
2022 12 21 06  06 34 49.384   +59 45 46.36  .15998 1.1158 143.0 21.0  48d 118
2022 12 21 07  06 34 33.299   +59 44 31.08  .16002 1.1159 143.1 21.0  48d 118
2022 12 21 08  06 34 17.240   +59 43 15.58  .16007 1.1160 143.1 21.0  48d 118
2022 12 21 09  06 34 01.205   +59 41 59.89  .16012 1.1161 143.1 21.0  48d 118
2022 12 21 10  06 33 45.196   +59 40 43.99  .16017 1.1162 143.2 21.0  48d 118
2022 12 21 11  06 33 29.213   +59 39 27.89  .16022 1.1163 143.2 21.0  48d 118
2022 12 21 12  06 33 13.255   +59 38 11.59  .16027 1.1163 143.2 21.0  48d 118
2022 12 21 13  06 32 57.322   +59 36 55.08  .16032 1.1164 143.3 21.0  48d 118
2022 12 21 14  06 32 41.415   +59 35 38.38  .16037 1.1165 143.3 21.0  48d 118
2022 12 21 15  06 32 25.533   +59 34 21.47  .16042 1.1166 143.3 21.0  48d 118
2022 12 21 16  06 32 09.677   +59 33 04.37  .16046 1.1167 143.4 21.0  48d 118
2022 12 21 17  06 31 53.847   +59 31 47.07  .16051 1.1168 143.4 21.0  48d 118
2022 12 21 18  06 31 38.042   +59 30 29.56  .16056 1.1169 143.4 21.0  48d 118
2022 12 21 19  06 31 22.264   +59 29 11.86  .16061 1.1170 143.5 21.0  48d 118
2022 12 21 20  06 31 06.511   +59 27 53.97  .16066 1.1171 143.5 21.0  48d 118
2022 12 21 21  06 30 50.785   +59 26 35.87  .16071 1.1171 143.5 21.0  48d 118
2022 12 21 22  06 30 35.084   +59 25 17.58  .16076 1.1172 143.6 21.0  48d 118
2022 12 21 23  06 30 19.410   +59 23 59.10  .16082 1.1173 143.6 21.0  48d 118
2022 12 22 00  06 30 03.762   +59 22 40.42  .16087 1.1174 143.6 21.0  48d 118
2022 12 22 01  06 29 48.141   +59 21 21.55  .16092 1.1175 143.7 21.0  48d 118
2022 12 22 02  06 29 32.545   +59 20 02.48  .16097 1.1176 143.7 21.0  48d 118
2022 12 22 03  06 29 16.976   +59 18 43.22  .16102 1.1177 143.7 21.0  48d 118
2022 12 22 04  06 29 01.434   +59 17 23.76  .16107 1.1178 143.8 21.0  48d 118
2022 12 22 05  06 28 45.918   +59 16 04.12  .16112 1.1179 143.8 21.0  48d 118